Weather in Panshino

Russia / Ulyanovsk Oblast     52°55′32″N   48°27′25″E
temp.,
°C
wind,
m/s
gust,
m/s
humid.,
%
clouds,
%
prec.,
mm/h
press.,
hPa
HPBL,
m
10 may, mon
mon1001:00+17se31158100 0.0 1012250
04:00+15se2362100 0.0 101351
07:00+15ese31068100 0.0 1013345
10:00+22se61144100 0.0 1014887
13:00+25ese7934100 0.0 10152375
16:00+25ese7934100 0.0 10152840
19:00+22e5114798 0.0 1016326
22:00+17ene41261100 0.0 1018228
11 may, tue
tue1101:00+16ene31361100 0.0 1018304
04:00+16e51557100 0.0 1019374
07:00+16e5146166 0.0 1020517
10:00+19sse785597 0.0 10221066
13:00+18s446429 0.0 1025914
16:00+20s345726 0.0 10241024
19:00+19wsw2263100 0.1 1025390
22:00+16nw2377100 0.8 102584
12 may, wed
wed1201:00+15w2284100 0.7 102523
04:00+15ne348775 0.7 1025106
07:00+14e2384100 0.0 1025107
10:00+16e41268100 0.0 1026471
13:00+20ese71149100 0.0 1025805
16:00+21ese5846100 0.0 10251260
19:00+17e256589 0.0 1025109
22:00+16ene226934 0.0 102520
13 may, thu
thu1301:00+14e22749 0.0 102526
04:00+13ene34694 0.0 102559
07:00+15ene396342 0.0 1025270
10:00+21se584684 0.0 1024808
13:00+22ese4643100 0.0 1024721
16:00+26se793798 0.0 10231774
19:00+23se410528 0.0 1023278
22:00+18se226579 0.0 102320
14 may, fri
fri1401:00+16se226774 0.0 102315
04:00+14ese226569 0.0 102412
07:00+16e2265100 0.1 102494
10:00+22se574311 0.1 1023563
13:00+27sse68305 0.0 10221256
16:00+28sse6831100 0.0 10221665
19:00+24sse41047100 0.0 1021258
22:00+18s355834 0.0 102266